Wind_Speed
41 39 36 34 33 32 31 30 30 29 28 28 27 27 27 26 26 26 26 26 27 27 27 27 28 28 29 29 29 30 30 31 31 32 32 33 34 34 34 35 36 36 36
42 41 39 37 35 34 33 32 31 30 30 30 29 29 29 29 29 29 28 28 28 29 29 29 29 30 30 31 31 31 32 32 33 33 34 35 35 35 35 36 37 37 37
44 44 42 39 38 36 35 34 33 32 32 32 31 31 31 31 31 31 31 30 30 30 31 31 31 32 32 33 33 33 33 34 34 35 35 35 35 35 36 36 37 37 38
46 45 43 41 39 38 37 36 35 34 34 33 33 33 33 33 32 32 32 32 31 31 32 33 33 34 34 34 34 35 35 35 36 36 36 35 35 35 36 37 37 38 39
47 47 45 43 42 40 40 39 38 37 36 36 34 34 34 34 34 34 34 34 33 33 34 34 34 35 35 35 36 36 36 37 37 37 36 36 36 36 37 37 38 39 40
47 47 46 45 44 42 42 41 39 38 37 37 37 36 36 36 36 36 36 36 36 36 36 36 36 36 36 37 37 37 37 37 37 37 37 37 37 37 37 37 39 40 40
48 48 47 46 45 44 43 42 41 40 39 39 39 39 39 39 39 38 38 38 38 39 38 38 38 38 38 39 38 38 38 38 38 38 38 38 38 38 38 38 40 40 41
46 47 48 47 46 44 44 43 42 41 40 40 41 42 42 42 42 42 41 40 40 40 40 40 40 40 40 40 39 39 38 39 39 38 38 38 38 39 39 40 41 41 42
46 46 46 47 47 46 46 44 44 43 42 43 43 43 43 43 44 43 43 43 43 42 42 42 41 41 41 41 40 40 39 40 39 39 39 39 39 40 40 41 42 42 42
45 45 45 46 47 47 47 46 46 46 46 46 45 45 45 45 44 43 43 44 44 44 43 42 42 42 42 42 41 41 40 40 40 40 39 40 40 41 42 43 43 43 43
43 43 44 46 47 47 47 48 48 48 48 47 47 46 47 47 46 45 44 45 45 44 43 42 42 43 43 43 42 42 41 40 40 40 40 41 42 42 43 44 43 43 43
41 42 43 44 45 47 49 50 49 49 49 48 47 48 49 48 47 47 47 46 45 44 44 44 43 42 43 43 42 41 41 40 41 41 41 42 43 43 44 44 43 43 42
42 42 43 43 44 47 49 49 51 51 50 50 50 50 50 50 48 49 48 47 45 45 45 45 44 42 42 42 43 42 42 42 42 42 42 43 43 44 43 43 43 42 42
41 41 42 42 44 46 47 48 48 49 50 51 51 50 50 50 49 49 49 48 47 46 45 45 45 44 44 44 44 44 43 43 43 44 44 44 44 43 43 43 43 42 41
38 41 41 42 43 44 45 47 48 49 49 50 51 52 51 50 49 49 49 48 48 47 46 46 46 46 46 45 45 45 44 44 44 44 44 44 44 43 43 43 42 41 40
36 39 39 40 42 45 46 47 49 50 50 50 50 50 49 49 49 50 50 49 49 48 47 46 46 46 47 47 47 46 45 45 45 44 44 44 44 43 42 42 41 40 38
35 37 39 41 43 46 46 48 49 49 50 49 48 49 49 49 50 51 52 51 50 50 49 48 48 47 48 47 47 47 47 46 45 44 44 44 43 43 42 41 40 38 37
35 37 40 42 43 45 47 48 49 50 50 50 50 51 51 51 52 52 52 52 52 52 51 50 50 50 50 49 49 48 47 46 45 44 43 43 42 42 41 39 38 37 36
34 37 40 42 43 44 46 48 50 51 51 52 52 52 53 53 53 54 54 54 54 54 53 52 53 52 51 51 49 47 46 46 44 43 42 42 41 40 38 37 36 36 34
33 35 38 40 42 44 46 47 49 51 52 53 54 55 54 55 55 55 56 56 56 55 55 54 55 53 51 50 48 46 45 43 42 42 41 41 40 39 38 36 36 34 33
35 37 40 42 43 45 46 47 49 51 52 54 55 56 57 57 58 57 57 57 57 57 56 55 54 53 49 48 47 45 44 43 43 42 41 40 39 38 36 35 34 33 31
37 40 42 44 45 47 48 49 51 53 55 56 56 56 57 58 58 57 56 56 56 56 55 54 53 51 49 47 46 45 44 43 42 41 40 39 38 37 35 34 33 32 30
38 41 43 46 48 49 50 51 53 55 56 58 58 59 58 57 56 56 55 55 55 54 52 51 49 49 48 46 44 43 42 41 40 39 38 38 37 35 34 33 32 30 29
40 42 44 46 48 49 49 50 51 52 54 56 57 56 56 56 55 54 54 53 53 53 52 50 48 47 46 46 44 43 42 40 39 38 38 37 36 35 34 32 31 29 28
41 43 45 46 47 47 47 48 49 50 51 52 52 53 54 53 54 54 53 51 51 50 48 48 47 46 46 45 44 43 42 40 39 38 37 36 35 34 33 32 30 29 28
43 44 46 46 47 47 48 48 49 50 50 49 49 50 51 52 52 52 51 50 49 48 48 47 47 47 46 45 44 43 41 40 39 37 36 36 35 34 32 31 30 29 28
Wind_Direction
241 243 244 245 247 248 249 250 251 254 255 257 258 259 260 262 263 264 266 268 270 271 273 275 278 280 283 285 288 291 295 298 300 302 304 306 308 310 311 312 314 315 316
241 242 243 244 246 248 249 250 252 254 256 258 259 259 261 262 263 264 266 268 269 271 272 275 277 279 281 284 286 289 293 296 298 300 302 304 306 307 309 311 313 314 314
240 241 242 244 246 247 249 251 252 254 257 258 259 260 261 262 263 264 266 268 269 270 272 274 276 278 281 283 285 288 291 294 297 298 300 302 304 305 307 309 311 312 313
239 241 242 243 246 248 250 251 253 254 255 257 258 259 260 262 263 264 266 268 269 271 273 274 276 279 281 283 284 287 290 292 295 297 298 300 302 304 306 308 309 311 311
239 240 241 242 245 248 250 251 251 253 254 256 257 258 260 261 263 264 266 268 269 272 273 275 277 278 280 282 284 286 288 291 293 295 297 298 300 302 305 306 308 309 310
238 239 241 243 245 247 249 250 250 251 253 255 257 259 260 261 263 264 266 267 269 271 273 275 276 277 279 281 283 286 288 290 292 293 295 296 299 300 303 304 306 307 308
237 238 240 242 245 246 248 248 249 251 253 255 258 260 261 262 264 264 265 268 270 272 272 273 275 277 278 280 283 285 287 288 290 291 293 295 297 299 301 303 304 305 307
238 239 240 242 243 244 247 247 249 251 254 256 259 261 262 263 263 265 265 267 269 270 271 273 275 276 277 279 281 284 285 286 288 289 291 294 296 298 299 301 302 304 305
237 237 239 240 241 244 247 248 250 252 254 257 259 262 263 263 263 264 265 267 267 269 271 273 274 275 277 279 280 283 284 285 286 288 290 292 295 297 298 300 301 302 304
236 237 240 243 245 246 247 250 252 253 255 257 259 261 263 263 264 265 266 267 267 269 271 273 274 275 276 277 278 281 282 283 284 286 288 291 294 295 297 299 300 301 303
236 239 242 244 246 249 249 251 252 254 256 257 259 261 262 263 265 265 266 268 268 269 270 273 275 276 276 277 278 279 279 281 283 284 286 289 292 293 295 297 298 300 302
238 241 243 246 249 251 251 252 253 255 257 258 259 261 263 263 263 265 266 268 269 269 269 271 273 276 276 276 277 277 278 280 281 283 286 289 291 292 294 295 297 300 301
240 244 246 248 252 254 255 256 256 257 257 259 260 261 263 264 264 265 266 268 269 269 270 271 272 273 274 275 275 275 276 278 280 283 286 288 290 291 292 294 297 299 300
243 244 247 249 253 255 256 257 258 259 259 260 261 263 264 263 264 264 266 268 269 269 269 270 272 272 273 274 274 274 275 278 280 282 284 287 289 290 292 294 296 298 299
245 246 248 252 255 257 259 260 260 260 261 261 262 263 264 264 264 264 265 266 268 269 269 270 271 272 272 273 273 273 275 277 280 282 283 286 287 289 292 294 296 297 298
248 249 252 256 259 261 261 260 261 262 262 263 264 263 264 264 264 264 265 266 267 268 268 269 271 272 272 271 271 272 275 277 279 281 283 285 286 287 290 292 294 295 296
253 255 257 260 261 262 262 262 263 263 264 263 262 262 263 264 264 265 266 266 266 267 268 268 269 270 270 270 270 272 275 276 278 281 284 284 285 286 289 291 293 294 294
259 260 261 263 265 266 266 265 264 264 264 263 263 263 263 263 263 264 264 263 264 265 266 267 268 269 269 270 271 271 274 276 278 280 281 282 284 286 288 290 291 292 292
264 265 266 267 268 268 267 266 265 265 264 264 263 263 264 264 264 264 263 263 264 264 266 267 269 269 269 270 270 271 273 275 276 278 280 281 283 285 286 288 289 290 290
268 268 270 271 271 271 269 268 267 266 266 265 264 264 264 264 264 264 263 264 264 264 265 266 268 268 268 268 268 269 272 273 275 277 278 280 282 284 285 286 287 288 288
276 276 275 274 273 274 272 270 268 267 266 265 264 263 263 264 263 264 264 265 264 264 264 265 265 265 265 265 267 269 270 271 274 275 277 279 280 281 282 283 285 285 285
281 280 278 276 276 276 274 271 268 267 265 265 265 263 263 264 264 264 263 262 262 263 263 264 264 262 263 265 266 267 268 270 272 273 275 277 278 279 280 281 282 282 282
285 282 280 279 277 276 273 271 269 268 267 267 266 265 263 263 263 262 260 259 260 260 260 261 261 261 262 263 265 266 267 269 270 272 274 275 276 276 277 278 278 278 278
286 284 283 283 281 279 276 274 272 271 269 267 265 264 262 260 259 258 258 258 259 258 258 259 260 261 262 263 265 265 266 267 269 271 272 273 273 274 275 276 276 275 275
289 288 288 286 283 281 279 276 275 274 272 270 267 264 261 259 257 256 256 256 258 258 258 259 261 262 263 263 264 264 265 266 268 269 270 271 271 272 272 273 273 273 273
291 291 291 289 286 283 281 280 278 276 274 270 266 263 260 258 255 255 256 256 257 257 256 257 258 259 260 262 263 263 263 264 266 267 268 269 269 269 269 270 270 270 270
Height
5822 5826 5828 5831 5833 5834 5836 5838 5839 5840 5841 5842 5842 5843 5843 5844 5844 5844 5844 5843 5842 5842 5842 5841 5840 5839 5837 5836 5834 5833 5831 5828 5826 5824 5821 5818 5815 5812 5809 5805 5802 5798 5794
5815 5818 5821 5824 5826 5828 5830 5831 5833 5834 5835 5836 5837 5837 5838 5838 5838 5838 5838 5838 5837 5836 5836 5835 5834 5833 5832 5831 5829 5827 5825 5823 5821 5818 5815 5813 5810 5806 5803 5799 5796 5792 5788
5807 5810 5814 5817 5819 5821 5823 5825 5827 5828 5829 5830 5831 5832 5832 5832 5832 5832 5832 5832 5831 5831 5830 5829 5828 5827 5826 5824 5823 5821 5819 5817 5815 5812 5809 5807 5803 5800 5797 5793 5790 5786 5782
5799 5802 5806 5809 5812 5814 5816 5818 5820 5821 5822 5823 5824 5825 5825 5826 5826 5826 5825 5825 5825 5824 5823 5822 5821 5820 5819 5818 5816 5814 5812 5810 5808 5806 5803 5800 5797 5794 5791 5787 5783 5780 5776
5790 5794 5798 5801 5804 5806 5809 5811 5812 5814 5815 5816 5817 5818 5818 5819 5819 5819 5819 5818 5818 5817 5817 5816 5814 5813 5812 5810 5809 5807 5805 5803 5801 5799 5796 5793 5790 5787 5784 5780 5777 5773 5769
5781 5786 5789 5793 5795 5798 5800 5802 5804 5806 5807 5808 5809 5810 5811 5811 5811 5811 5811 5811 5810 5810 5809 5808 5807 5806 5804 5803 5801 5799 5797 5795 5793 5791 5788 5786 5783 5780 5777 5773 5769 5766 5762
5772 5776 5780 5784 5787 5790 5792 5794 5796 5798 5799 5800 5801 5802 5803 5803 5803 5803 5803 5803 5803 5802 5801 5800 5799 5797 5796 5794 5793 5791 5790 5787 5785 5783 5781 5778 5775 5772 5769 5766 5762 5758 5754
5763 5767 5771 5775 5778 5781 5783 5785 5787 5789 5791 5792 5793 5793 5793 5795 5795 5795 5794 5794 5794 5793 5792 5791 5790 5789 5787 5786 5785 5783 5781 5779 5777 5775 5772 5770 5767 5764 5761 5758 5754 5750 5747
5755 5759 5762 5766 5769 5772 5774 5776 5778 5780 5781 5783 5783 5784 5785 5785 5785 5785 5785 5785 5784 5784 5783 5782 5781 5780 5778 5777 5776 5774 5772 5771 5769 5766 5764 5762 5759 5756 5753 5749 5746 5742 5738
5747 5750 5754 5757 5759 5762 5765 5767 5769 5771 5771 5772 5773 5774 5775 5775 5775 5775 5775 5775 5774 5774 5773 5772 5771 5770 5769 5768 5766 5765 5763 5761 5760 5758 5755 5753 5750 5747 5744 5741 5737 5734 5730
5739 5742 5745 5748 5750 5753 5755 5757 5758 5760 5761 5762 5763 5764 5764 5764 5764 5765 5765 5764 5763 5763 5762 5762 5760 5760 5759 5758 5756 5755 5753 5752 5750 5748 5746 5744 5741 5738 5735 5732 5729 5725 5722
5730 5734 5737 5739 5741 5743 5745 5746 5748 5749 5751 5751 5752 5752 5753 5753 5753 5753 5753 5753 5752 5752 5752 5751 5750 5749 5748 5747 5746 5744 5743 5742 5740 5738 5736 5734 5732 5729 5726 5723 5720 5716 5713
5723 5726 5728 5730 5732 5734 5735 5736 5737 5738 5739 5740 5740 5741 5741 5741 5741 5741 5741 5741 5741 5741 5740 5740 5739 5738 5737 5736 5735 5734 5733 5732 5730 5728 5726 5724 5722 5719 5716 5713 5711 5708 5704
5715 5717 5719 5721 5722 5723 5724 5725 5726 5727 5728 5728 5729 5729 5729 5730 5729 5729 5729 5729 5729 5729 5729 5729 5728 5727 5726 5726 5725 5723 5722 5721 5720 5718 5716 5714 5712 5709 5707 5704 5701 5698 5695
5706 5709 5711 5712 5713 5713 5714 5714 5715 5715 5715 5716 5716 5717 5717 5717 5717 5717 5717 5717 5718 5717 5717 5717 5716 5716 5715 5714 5713 5712 5711 5710 5709 5707 5705 5704 5702 5699 5697 5694 5692 5689 5686
5698 5700 5701 5702 5703 5704 5704 5703 5704 5703 5704 5704 5704 5704 5705 5705 5705 5705 5705 5705 5705 5705 5705 5705 5704 5704 5703 5702 5701 5700 5699 5698 5697 5696 5694 5693 5691 5689 5687 5684 5682 5679 5677
5689 5691 5692 5693 5693 5692 5692 5692 5692 5691 5691 5691 5691 5691 5692 5692 5692 5692 5692 5692 5692 5692 5692 5692 5692 5691 5690 5690 5689 5688 5688 5687 5686 5685 5684 5682 5681 5679 5677 5674 5672 5670 5668
5681 5681 5682 5682 5681 5681 5680 5679 5679 5678 5678 5678 5678 5678 5678 5678 5679 5679 5679 5679 5678 5678 5679 5679 5678 5678 5678 5677 5677 5676 5676 5675 5674 5673 5672 5671 5670 5668 5666 5664 5663 5661 5659
5672 5672 5671 5671 5670 5669 5667 5666 5665 5665 5664 5664 5664 5664 5664 5664 5665 5665 5664 5664 5664 5665 5665 5665 5665 5665 5664 5664 5664 5664 5663 5663 5662 5662 5661 5660 5659 5658 5656 5655 5653 5652 5650
5661 5661 5660 5659 5657 5656 5654 5653 5652 5651 5650 5650 5650 5650 5649 5650 5650 5650 5649 5649 5650 5650 5651 5651 5651 5651 5651 5651 5651 5651 5651 5651 5651 5650 5650 5649 5648 5647 5646 5645 5644 5643 5641
5650 5649 5647 5646 5644 5642 5640 5638 5637 5636 5635 5634 5634 5634 5634 5633 5634 5634 5634 5634 5634 5635 5636 5637 5637 5637 5638 5638 5639 5639 5639 5639 5639 5639 5639 5638 5638 5637 5636 5635 5634 5633 5632
5639 5636 5634 5632 5630 5627 5625 5622 5620 5619 5618 5618 5617 5617 5617 5617 5617 5617 5617 5618 5619 5620 5621 5622 5623 5623 5624 5625 5626 5626 5627 5627 5628 5628 5628 5628 5627 5627 5626 5626 5625 5625 5624
5626 5623 5620 5617 5615 5612 5608 5606 5603 5601 5601 5600 5599 5599 5600 5600 5600 5600 5601 5602 5603 5605 5607 5608 5609 5610 5611 5612 5613 5614 5615 5615 5616 5616 5616 5617 5617 5617 5617 5616 5616 5615 5615
5614 5610 5607 5602 5599 5595 5591 5588 5586 5583 5582 5581 5580 5580 5581 5582 5583 5584 5585 5586 5588 5590 5592 5594 5595 5596 5598 5599 5600 5602 5602 5604 5604 5605 5605 5606 5606 5607 5607 5607 5607 5607 5606
5601 5597 5593 5588 5584 5579 5575 5572 5568 5566 5564 5562 5562 5562 5562 5564 5566 5567 5569 5571 5573 5575 5577 5580 5581 5583 5585 5586 5588 5589 5590 5592 5593 5594 5594 5596 5596 5596 5597 5598 5598 5598 5598
5589 5585 5579 5574 5569 5564 5560 5556 5552 5549 5547 5545 5544 5544 5545 5546 5549 5551 5553 5556 5558 5561 5563 5566 5568 5570 5572 5573 5575 5577 5578 5580 5581 5582 5583 5585 5585 5586 5587 5588 5588 5589 5589